Time,TemperatureF,DewpointF,PressureIn,WindDirection,WindDirectionDegrees,WindSpeedMPH,WindSpeedGustMPH,Humidity,HourlyPrecipIn,Conditions,Clouds,dailyrainin,SoftwareType,DateUTC
2013-02-22 00:04:00,38.2,30.3,29.85,WNW,297,0.0,0.0,73,0.00,,---,0.00,VWS V14.00,2013-02-22 08:04:00,
2013-02-22 00:09:00,38.0,30.5,29.85,WNW,297,0.0,0.0,74,0.00,,---,0.00,VWS V14.00,2013-02-22 08:09:00,
2013-02-22 00:14:00,37.9,30.4,29.85,WNW,297,0.0,0.0,74,0.00,,---,0.00,VWS V14.00,2013-02-22 08:14:00,
2013-02-22 00:19:00,37.9,30.4,29.84,WNW,297,0.0,0.0,74,0.00,,---,0.00,VWS V14.00,2013-02-22 08:19:00,
2013-02-22 00:24:00,38.0,30.5,29.84,WNW,297,0.0,0.0,74,0.00,,---,0.00,VWS V14.00,2013-02-22 08:24:00,
2013-02-22 00:29:00,38.3,30.4,29.84,WNW,297,0.0,0.0,73,0.00,,---,0.00,VWS V14.00,2013-02-22 08:29:00,
2013-02-22 00:34:00,38.5,30.6,29.85,WNW,297,0.0,0.0,73,0.00,,---,0.00,VWS V14.00,2013-02-22 08:34:00,
2013-02-22 00:39:00,38.6,30.4,29.85,WNW,297,0.0,0.0,72,0.00,,---,0.00,VWS V14.00,2013-02-22 08:39:00,
2013-02-22 00:44:00,38.6,30.4,29.85,WNW,297,0.0,0.0,72,0.00,,---,0.00,VWS V14.00,2013-02-22 08:44:00,
2013-02-22 00:49:00,38.5,30.3,29.85,WNW,297,0.0,0.0,72,0.00,,---,0.00,VWS V14.00,2013-02-22 08:49:00,
2013-02-22 00:54:00,38.3,30.4,29.85,WNW,297,0.0,0.0,73,0.00,,---,0.00,VWS V14.00,2013-02-22 08:54:00,
2013-02-22 00:59:00,38.0,30.1,29.85,WNW,297,0.0,0.0,73,0.00,,---,0.00,VWS V14.00,2013-02-22 08:59:00,
2013-02-22 01:04:00,37.9,30.0,29.85,WNW,297,0.0,0.0,73,0.00,,---,0.00,VWS V14.00,2013-02-22 09:04:00,
2013-02-22 01:09:00,37.6,30.1,29.85,WNW,297,0.0,0.0,74,0.00,,---,0.00,VWS V14.00,2013-02-22 09:09:00,
2013-02-22 01:14:00,37.3,29.8,29.85,WNW,297,0.0,0.0,74,0.00,,---,0.00,VWS V14.00,2013-02-22 09:14:00,
2013-02-22 01:19:00,37.2,30.0,29.86,WNW,297,0.0,0.0,75,0.00,,---,0.00,VWS V14.00,2013-02-22 09:19:00,
2013-02-22 01:24:00,36.9,29.7,29.86,WNW,297,0.0,0.0,75,0.00,,---,0.00,VWS V14.00,2013-02-22 09:24:00,
2013-02-22 01:29:00,36.8,29.6,29.86,WNW,297,0.0,0.0,75,0.00,,---,0.00,VWS V14.00,2013-02-22 09:29:00,
2013-02-22 01:34:00,36.5,29.3,29.86,WNW,297,0.0,0.0,75,0.00,,---,0.00,VWS V14.00,2013-02-22 09:34:00,
2013-02-22 01:39:00,36.3,29.5,29.86,WNW,297,0.0,0.0,76,0.00,,---,0.00,VWS V14.00,2013-02-22 09:39:00,
2013-02-22 01:44:00,36.2,29.4,29.86,WNW,297,0.0,0.0,76,0.00,,---,0.00,VWS V14.00,2013-02-22 09:44:00,
2013-02-22 01:49:00,36.0,29.5,29.86,WNW,297,0.0,0.0,77,0.00,,---,0.00,VWS V14.00,2013-02-22 09:49:00,
2013-02-22 01:54:00,36.2,29.7,29.86,WNW,297,0.0,0.0,77,0.00,,---,0.00,VWS V14.00,2013-02-22 09:54:00,
2013-02-22 01:59:00,36.2,29.7,29.86,WNW,297,0.0,0.0,77,0.00,,---,0.00,VWS V14.00,2013-02-22 09:59:00,
2013-02-22 02:04:00,36.0,29.5,29.86,WNW,297,0.0,0.0,77,0.00,,---,0.00,VWS V14.00,2013-02-22 10:04:00,
2013-02-22 02:09:00,36.0,29.5,29.86,WNW,297,0.0,0.0,77,0.00,,---,0.00,VWS V14.00,2013-02-22 10:09:00,
2013-02-22 02:14:00,36.2,29.4,29.86,WNW,297,0.0,1.0,76,0.00,,---,0.00,VWS V14.00,2013-02-22 10:14:00,
2013-02-22 02:19:00,36.2,29.4,29.86,WNW,297,0.0,0.0,76,0.00,,---,0.00,VWS V14.00,2013-02-22 10:19:00,
2013-02-22 02:24:00,36.0,29.5,29.86,WNW,297,0.0,0.0,77,0.00,,---,0.00,VWS V14.00,2013-02-22 10:24:00,
2013-02-22 02:29:00,35.9,29.4,29.86,WNW,297,0.0,0.0,77,0.00,,---,0.00,VWS V14.00,2013-02-22 10:29:00,
2013-02-22 02:34:00,35.8,29.3,29.85,WNW,297,0.0,0.0,77,0.00,,---,0.00,VWS V14.00,2013-02-22 10:34:00,
2013-02-22 02:39:00,35.6,29.1,29.85,WNW,297,0.0,0.0,77,0.00,,---,0.00,VWS V14.00,2013-02-22 10:39:00,
2013-02-22 02:44:00,35.5,29.3,29.85,WNW,297,0.0,0.0,78,0.00,,---,0.00,VWS V14.00,2013-02-22 10:44:00,
2013-02-22 02:49:00,35.5,29.3,29.86,WNW,297,0.0,0.0,78,0.00,,---,0.00,VWS V14.00,2013-02-22 10:49:00,
2013-02-22 02:54:00,35.5,29.6,29.86,WNW,297,0.0,0.0,79,0.00,,---,0.00,VWS V14.00,2013-02-22 10:54:00,
2013-02-22 02:59:00,35.3,29.5,29.86,WNW,297,0.0,0.0,79,0.00,,---,0.00,VWS V14.00,2013-02-22 10:59:00,
2013-02-22 03:04:00,35.2,29.4,29.86,WNW,297,0.0,0.0,79,0.00,,---,0.00,VWS V14.00,2013-02-22 11:04:00,
2013-02-22 03:09:00,35.0,29.2,29.86,WNW,297,0.0,0.0,79,0.00,,---,0.00,VWS V14.00,2013-02-22 11:09:00,
2013-02-22 03:14:00,35.0,29.5,29.86,WNW,297,0.0,0.0,80,0.00,,---,0.00,VWS V14.00,2013-02-22 11:14:00,
2013-02-22 03:18:00,34.9,29.4,29.85,WNW,297,0.0,0.0,80,0.00,,---,0.00,VWS V14.00,2013-02-22 11:18:00,
2013-02-22 03:23:00,34.7,29.2,29.85,WNW,297,0.0,0.0,80,0.00,,---,0.00,VWS V14.00,2013-02-22 11:23:00,
2013-02-22 03:28:00,34.6,29.4,29.85,WNW,297,0.0,0.0,81,0.00,,---,0.00,VWS V14.00,2013-02-22 11:28:00,
2013-02-22 03:33:00,34.6,29.4,29.86,WNW,297,0.0,0.0,81,0.00,,---,0.00,VWS V14.00,2013-02-22 11:33:00,
2013-02-22 03:38:00,34.4,29.2,29.86,WNW,297,0.0,0.0,81,0.00,,---,0.00,VWS V14.00,2013-02-22 11:38:00,
2013-02-22 03:43:00,34.4,29.2,29.86,WNW,297,0.0,0.0,81,0.00,,---,0.00,VWS V14.00,2013-02-22 11:43:00,
2013-02-22 03:48:00,34.4,29.5,29.85,WNW,297,0.0,0.0,82,0.00,,---,0.00,VWS V14.00,2013-02-22 11:48:00,
2013-02-22 03:53:00,34.4,29.5,29.85,WNW,297,0.0,0.0,82,0.00,,---,0.00,VWS V14.00,2013-02-22 11:53:00,
2013-02-22 03:58:00,34.3,29.4,29.85,WNW,297,0.0,0.0,82,0.00,,---,0.00,VWS V14.00,2013-02-22 11:58:00,
2013-02-22 04:03:00,34.3,29.4,29.86,WNW,297,0.0,0.0,82,0.00,,---,0.00,VWS V14.00,2013-02-22 12:03:00,
2013-02-22 04:08:00,34.1,29.2,29.86,WNW,297,0.0,0.0,82,0.00,,---,0.00,VWS V14.00,2013-02-22 12:08:00,
2013-02-22 04:13:00,34.1,29.5,29.86,WNW,297,0.0,0.0,83,0.00,,---,0.00,VWS V14.00,2013-02-22 12:13:00,
2013-02-22 04:18:00,34.0,29.4,29.86,WNW,297,0.0,0.0,83,0.00,,---,0.00,VWS V14.00,2013-02-22 12:18:00,
2013-02-22 04:23:00,33.8,29.2,29.86,WNW,297,0.0,0.0,83,0.00,,---,0.00,VWS V14.00,2013-02-22 12:23:00,
2013-02-22 04:28:00,34.0,29.4,29.86,WNW,297,0.0,0.0,83,0.00,,---,0.00,VWS V14.00,2013-02-22 12:28:00,
2013-02-22 04:33:00,33.8,29.2,29.86,WNW,297,0.0,0.0,83,0.00,,---,0.00,VWS V14.00,2013-02-22 12:33:00,
2013-02-22 04:38:00,33.8,29.2,29.86,WNW,297,0.0,0.0,83,0.00,,---,0.00,VWS V14.00,2013-02-22 12:38:00,
2013-02-22 04:43:00,33.7,29.1,29.86,WNW,297,0.0,0.0,83,0.00,,---,0.00,VWS V14.00,2013-02-22 12:43:00,
2013-02-22 04:48:00,33.7,29.1,29.87,WNW,297,0.0,0.0,83,0.00,,---,0.00,VWS V14.00,2013-02-22 12:48:00,
2013-02-22 04:53:00,33.5,28.9,29.87,WNW,297,0.0,0.0,83,0.00,,---,0.00,VWS V14.00,2013-02-22 12:53:00,
2013-02-22 04:58:00,33.5,28.9,29.87,WNW,297,0.0,0.0,83,0.00,,---,0.00,VWS V14.00,2013-02-22 12:58:00,
2013-02-22 05:03:00,33.4,29.1,29.88,WNW,297,0.0,0.0,84,0.00,,---,0.00,VWS V14.00,2013-02-22 13:03:00,
2013-02-22 05:08:00,33.4,29.1,29.88,WNW,297,0.0,0.0,84,0.00,,---,0.00,VWS V14.00,2013-02-22 13:08:00,
2013-02-22 05:13:00,33.4,29.1,29.88,WNW,297,0.0,0.0,84,0.00,,---,0.00,VWS V14.00,2013-02-22 13:13:00,
2013-02-22 05:18:00,33.4,29.1,29.88,WNW,297,0.0,0.0,84,0.00,,---,0.00,VWS V14.00,2013-02-22 13:18:00,
2013-02-22 05:23:00,33.4,29.1,29.88,WNW,297,0.0,0.0,84,0.00,,---,0.00,VWS V14.00,2013-02-22 13:23:00,
2013-02-22 05:28:00,33.2,28.9,29.88,WNW,297,0.0,0.0,84,0.00,,---,0.00,VWS V14.00,2013-02-22 13:28:00,
2013-02-22 05:33:00,33.2,28.9,29.89,WNW,297,0.0,0.0,84,0.00,,---,0.00,VWS V14.00,2013-02-22 13:33:00,
2013-02-22 05:38:00,33.2,28.9,29.89,WNW,297,0.0,0.0,84,0.00,,---,0.00,VWS V14.00,2013-02-22 13:38:00,
2013-02-22 05:43:00,33.2,28.9,29.89,WNW,297,0.0,0.0,84,0.00,,---,0.00,VWS V14.00,2013-02-22 13:43:00,
2013-02-22 05:48:00,33.2,28.9,29.88,WNW,297,0.0,0.0,84,0.00,,---,0.00,VWS V14.00,2013-02-22 13:48:00,
2013-02-22 05:53:00,33.1,28.8,29.88,WNW,297,0.0,0.0,84,0.00,,---,0.00,VWS V14.00,2013-02-22 13:53:00,
2013-02-22 05:58:00,33.2,29.2,29.88,WNW,297,0.0,0.0,85,0.00,,---,0.00,VWS V14.00,2013-02-22 13:58:00,
2013-02-22 06:03:00,33.4,29.1,29.90,WNW,297,0.0,0.0,84,0.00,,---,0.00,VWS V14.00,2013-02-22 14:03:00,
2013-02-22 06:08:00,33.2,28.9,29.90,WNW,297,0.0,0.0,84,0.00,,---,0.00,VWS V14.00,2013-02-22 14:08:00,
2013-02-22 06:13:00,33.2,28.9,29.90,WNW,297,0.0,0.0,84,0.00,,---,0.00,VWS V14.00,2013-02-22 14:13:00,
2013-02-22 06:18:00,33.1,28.8,29.90,WNW,297,0.0,0.0,84,0.00,,---,0.00,VWS V14.00,2013-02-22 14:18:00,
2013-02-22 06:23:00,33.1,28.8,29.90,WNW,297,0.0,0.0,84,0.00,,---,0.00,VWS V14.00,2013-02-22 14:23:00,
2013-02-22 06:28:00,33.1,28.8,29.90,WNW,297,0.0,0.0,84,0.00,,---,0.00,VWS V14.00,2013-02-22 14:28:00,
2013-02-22 06:33:00,32.9,28.6,29.91,WNW,297,0.0,0.0,84,0.00,,---,0.00,VWS V14.00,2013-02-22 14:33:00,
2013-02-22 06:38:00,32.9,28.6,29.91,WNW,297,0.0,0.0,84,0.00,,---,0.00,VWS V14.00,2013-02-22 14:38:00,
2013-02-22 06:43:00,32.8,28.5,29.91,WNW,297,0.0,0.0,84,0.00,,---,0.00,VWS V14.00,2013-02-22 14:43:00,
2013-02-22 06:48:00,32.8,28.8,29.91,WNW,297,0.0,0.0,85,0.00,,---,0.00,VWS V14.00,2013-02-22 14:48:00,
2013-02-22 06:53:00,32.8,28.8,29.91,WNW,297,0.0,0.0,85,0.00,,---,0.00,VWS V14.00,2013-02-22 14:53:00,
2013-02-22 06:58:00,32.8,28.8,29.91,WNW,297,0.0,0.0,85,0.00,,---,0.00,VWS V14.00,2013-02-22 14:58:00,
2013-02-22 07:03:00,32.8,28.8,29.91,WNW,297,0.0,0.0,85,0.00,,---,0.00,VWS V14.00,2013-02-22 15:03:00,
2013-02-22 07:08:00,32.8,29.1,29.91,WNW,297,0.0,0.0,86,0.00,,---,0.00,VWS V14.00,2013-02-22 15:08:00,
2013-02-22 07:13:00,32.9,29.2,29.91,WNW,297,0.0,0.0,86,0.00,,---,0.00,VWS V14.00,2013-02-22 15:13:00,
2013-02-22 07:18:00,32.9,29.2,29.91,WNW,297,0.0,0.0,86,0.00,,---,0.00,VWS V14.00,2013-02-22 15:18:00,
2013-02-22 07:23:00,32.9,29.2,29.92,WNW,297,0.0,0.0,86,0.00,,---,0.00,VWS V14.00,2013-02-22 15:23:00,
2013-02-22 07:28:00,32.9,29.2,29.92,WNW,297,0.0,0.0,86,0.00,,---,0.00,VWS V14.00,2013-02-22 15:28:00,
2013-02-22 07:33:00,33.2,29.5,29.92,WNW,297,0.0,0.0,86,0.00,,---,0.00,VWS V14.00,2013-02-22 15:33:00,
2013-02-22 07:38:00,33.7,30.0,29.92,WNW,297,0.0,0.0,86,0.00,,---,0.00,VWS V14.00,2013-02-22 15:38:00,
2013-02-22 07:43:00,34.1,30.4,29.92,WNW,297,0.0,0.0,86,0.00,,---,0.00,VWS V14.00,2013-02-22 15:43:00,
2013-02-22 07:48:00,34.7,31.0,29.92,WNW,297,0.0,0.0,86,0.00,,---,0.00,VWS V14.00,2013-02-22 15:48:00,
2013-02-22 07:53:00,35.2,31.1,29.93,WNW,297,0.0,0.0,85,0.00,,---,0.00,VWS V14.00,2013-02-22 15:53:00,
2013-02-22 07:58:00,35.6,31.5,29.93,WNW,297,0.0,0.0,85,0.00,,---,0.00,VWS V14.00,2013-02-22 15:58:00,
2013-02-22 08:03:00,36.2,31.8,29.93,WNW,297,0.0,0.0,84,0.00,,---,0.00,VWS V14.00,2013-02-22 16:03:00,
2013-02-22 08:08:00,36.8,32.1,29.93,WNW,297,0.0,0.0,83,0.00,,---,0.00,VWS V14.00,2013-02-22 16:08:00,
2013-02-22 08:13:00,37.8,32.8,29.93,WNW,297,0.0,0.0,82,0.00,,---,0.00,VWS V14.00,2013-02-22 16:13:00,
2013-02-22 08:18:00,38.5,32.9,29.93,WNW,297,0.0,0.0,80,0.00,,---,0.00,VWS V14.00,2013-02-22 16:18:00,
2013-02-22 08:23:00,39.3,33.3,29.93,WNW,297,0.0,0.0,79,0.00,,---,0.00,VWS V14.00,2013-02-22 16:23:00,
2013-02-22 08:28:00,40.2,33.6,29.93,WNW,297,0.0,0.0,77,0.00,,---,0.00,VWS V14.00,2013-02-22 16:28:00,
2013-02-22 08:33:00,41.8,34.1,29.93,WNW,297,0.0,1.0,74,0.00,,---,0.00,VWS V14.00,2013-02-22 16:33:00,
2013-02-22 08:38:00,43.5,34.4,29.93,WNW,288,0.0,2.0,70,0.00,,---,0.00,VWS V14.00,2013-02-22 16:38:00,
2013-02-22 08:43:00,44.5,34.6,29.93,WNW,287,0.0,4.0,68,0.00,,---,0.00,VWS V14.00,2013-02-22 16:43:00,
2013-02-22 08:48:00,45.7,35.0,29.93,WNW,287,0.0,0.0,66,0.00,,---,0.00,VWS V14.00,2013-02-22 16:48:00,
2013-02-22 08:53:00,46.8,34.9,29.93,WNW,287,0.0,1.0,63,0.00,,---,0.00,VWS V14.00,2013-02-22 16:53:00,
2013-02-22 08:58:00,47.9,35.5,29.93,WNW,287,0.0,2.0,62,0.00,,---,0.00,VWS V14.00,2013-02-22 16:58:00,
2013-02-22 09:02:00,48.9,35.6,29.93,SW,224,0.0,2.0,60,0.00,,---,0.00,VWS V14.00,2013-02-22 17:02:00,
2013-02-22 09:07:00,49.8,36.1,29.94,SW,224,0.0,1.0,59,0.00,,---,0.00,VWS V14.00,2013-02-22 17:07:00,
2013-02-22 09:12:00,50.2,35.6,29.94,SW,223,0.0,4.0,57,0.00,,---,0.00,VWS V14.00,2013-02-22 17:12:00,
2013-02-22 09:17:00,50.5,35.4,29.94,SSW,205,0.0,6.0,56,0.00,,---,0.00,VWS V14.00,2013-02-22 17:17:00,
2013-02-22 09:22:00,50.4,36.6,29.94,SSW,205,0.0,4.0,59,0.00,,---,0.00,VWS V14.00,2013-02-22 17:22:00,
2013-02-22 09:27:00,51.1,36.4,29.94,ENE,67,0.0,4.0,57,0.00,,---,0.00,VWS V14.00,2013-02-22 17:27:00,
2013-02-22 09:32:00,51.6,36.4,29.94,SSE,160,4.0,6.0,56,0.00,,---,0.00,VWS V14.00,2013-02-22 17:32:00,
2013-02-22 09:37:00,51.6,36.9,29.94,South,189,0.0,8.0,57,0.00,,---,0.00,VWS V14.00,2013-02-22 17:37:00,
2013-02-22 09:42:00,51.7,37.0,29.94,South,180,5.0,6.0,57,0.00,,---,0.00,VWS V14.00,2013-02-22 17:42:00,
2013-02-22 09:47:00,51.6,36.9,29.94,South,181,4.0,6.0,57,0.00,,---,0.00,VWS V14.00,2013-02-22 17:47:00,
2013-02-22 09:52:00,51.9,36.7,29.94,SSW,205,0.0,6.0,56,0.00,,---,0.00,VWS V14.00,2013-02-22 17:52:00,
2013-02-22 09:57:00,52.5,37.3,29.94,South,188,0.0,3.0,56,0.00,,---,0.00,VWS V14.00,2013-02-22 17:57:00,
2013-02-22 10:02:00,52.6,36.9,29.94,South,188,2.0,8.0,55,0.00,,---,0.00,VWS V14.00,2013-02-22 18:02:00,
2013-02-22 10:07:00,52.8,37.5,29.94,South,187,3.0,6.0,56,0.00,,---,0.00,VWS V14.00,2013-02-22 18:07:00,
2013-02-22 10:12:00,52.5,37.7,29.94,SW,221,6.0,7.0,57,0.00,,---,0.00,VWS V14.00,2013-02-22 18:12:00,
2013-02-22 10:17:00,52.3,37.5,29.94,SW,218,6.0,6.0,57,0.00,,---,0.00,VWS V14.00,2013-02-22 18:17:00,
2013-02-22 10:22:00,52.5,36.8,29.94,WSW,240,5.0,8.0,55,0.00,,---,0.00,VWS V14.00,2013-02-22 18:22:00,
2013-02-22 10:27:00,52.0,37.2,29.94,WSW,239,0.0,4.0,57,0.00,,---,0.00,VWS V14.00,2013-02-22 18:27:00,
2013-02-22 10:32:00,52.9,37.7,29.94,SSW,203,5.0,6.0,56,0.00,,---,0.00,VWS V14.00,2013-02-22 18:32:00,
2013-02-22 10:37:00,53.3,37.6,29.94,ESE,121,1.0,6.0,55,0.00,,---,0.00,VWS V14.00,2013-02-22 18:37:00,
2013-02-22 10:42:00,53.3,38.0,29.94,SE,143,0.0,7.0,56,0.00,,---,0.00,VWS V14.00,2013-02-22 18:42:00,
2013-02-22 10:47:00,53.9,38.1,29.94,ESE,109,4.0,5.0,55,0.00,,---,0.00,VWS V14.00,2013-02-22 18:47:00,
2013-02-22 10:52:00,54.5,37.7,29.93,South,171,1.0,6.0,53,0.00,,---,0.00,VWS V14.00,2013-02-22 18:52:00,
2013-02-22 10:57:00,54.7,37.9,29.93,South,184,0.0,6.0,53,0.00,,---,0.00,VWS V14.00,2013-02-22 18:57:00,
2013-02-22 11:02:00,55.0,37.2,29.93,ESE,115,0.0,5.0,51,0.00,,---,0.00,VWS V14.00,2013-02-22 19:02:00,
2013-02-22 11:07:00,55.3,38.5,29.93,SSE,156,1.0,5.0,53,0.00,,---,0.00,VWS V14.00,2013-02-22 19:07:00,
2013-02-22 11:12:00,55.6,39.2,29.93,South,184,0.0,4.0,54,0.00,,---,0.00,VWS V14.00,2013-02-22 19:12:00,
2013-02-22 11:17:00,56.0,37.6,29.93,ENE,75,0.0,2.0,50,0.00,,---,0.00,VWS V14.00,2013-02-22 19:17:00,
2013-02-22 11:22:00,56.0,37.1,29.93,WSW,237,2.0,8.0,49,0.00,,---,0.00,VWS V14.00,2013-02-22 19:22:00,
2013-02-22 11:27:00,55.3,35.4,29.93,WSW,238,5.0,7.0,47,0.00,,---,0.00,VWS V14.00,2013-02-22 19:27:00,
2013-02-22 11:32:00,55.4,37.6,29.93,South,172,0.0,6.0,51,0.00,,---,0.00,VWS V14.00,2013-02-22 19:32:00,
2013-02-22 11:37:00,56.0,37.6,29.93,SSW,195,4.0,5.0,50,0.00,,---,0.00,VWS V14.00,2013-02-22 19:37:00,
2013-02-22 11:42:00,56.0,37.1,29.93,South,191,0.0,6.0,49,0.00,,---,0.00,VWS V14.00,2013-02-22 19:42:00,
2013-02-22 11:47:00,56.7,37.8,29.93,South,191,1.0,3.0,49,0.00,,---,0.00,VWS V14.00,2013-02-22 19:47:00,
2013-02-22 11:52:00,56.3,36.9,29.93,SW,225,4.0,9.0,48,0.00,,---,0.00,VWS V14.00,2013-02-22 19:52:00,
2013-02-22 11:57:00,56.3,35.8,29.93,South,169,2.0,7.0,46,0.00,,---,0.00,VWS V14.00,2013-02-22 19:57:00,
2013-02-22 12:02:00,56.6,36.6,29.93,South,181,3.0,4.0,47,0.00,,---,0.00,VWS V14.00,2013-02-22 20:02:00,
2013-02-22 12:07:00,56.6,36.6,29.93,SW,228,2.0,7.0,47,0.00,,---,0.00,VWS V14.00,2013-02-22 20:07:00,
2013-02-22 12:12:00,57.0,36.4,29.93,WSW,240,6.0,6.0,46,0.00,,---,0.00,VWS V14.00,2013-02-22 20:12:00,
2013-02-22 12:17:00,56.9,36.3,29.93,WSW,250,1.0,7.0,46,0.00,,---,0.00,VWS V14.00,2013-02-22 20:17:00,
2013-02-22 12:22:00,56.7,36.2,29.92,WSW,252,1.0,4.0,46,0.00,,---,0.00,VWS V14.00,2013-02-22 20:22:00,
2013-02-22 12:27:00,57.0,37.0,29.92,WSW,244,4.0,6.0,47,0.00,,---,0.00,VWS V14.00,2013-02-22 20:27:00,
2013-02-22 12:32:00,56.7,37.2,29.92,WSW,240,0.0,5.0,48,0.00,,---,0.00,VWS V14.00,2013-02-22 20:32:00,
2013-02-22 12:37:00,57.2,37.7,29.91,SSW,199,3.0,8.0,48,0.00,,---,0.00,VWS V14.00,2013-02-22 20:37:00,
2013-02-22 12:42:00,57.0,37.0,29.91,WSW,238,0.0,7.0,47,0.00,,---,0.00,VWS V14.00,2013-02-22 20:42:00,
2013-02-22 12:47:00,57.2,36.6,29.91,WSW,238,1.0,6.0,46,0.00,,---,0.00,VWS V14.00,2013-02-22 20:47:00,
2013-02-22 12:52:00,57.6,37.0,29.91,SW,214,5.0,7.0,46,0.00,,---,0.00,VWS V14.00,2013-02-22 20:52:00,
2013-02-22 12:57:00,57.6,36.4,29.91,WSW,253,0.0,5.0,45,0.00,,---,0.00,VWS V14.00,2013-02-22 20:57:00,
2013-02-22 13:02:00,58.1,36.3,29.91,WSW,245,2.0,6.0,44,0.00,,---,0.00,VWS V14.00,2013-02-22 21:02:00,
2013-02-22 13:07:00,58.1,35.7,29.90,WSW,243,4.0,5.0,43,0.00,,---,0.00,VWS V14.00,2013-02-22 21:07:00,
2013-02-22 13:12:00,58.3,35.9,29.90,West,271,0.0,6.0,43,0.00,,---,0.00,VWS V14.00,2013-02-22 21:12:00,
2013-02-22 13:17:00,58.9,36.5,29.90,WSW,249,0.0,6.0,43,0.00,,---,0.00,VWS V14.00,2013-02-22 21:17:00,
2013-02-22 13:22:00,59.3,36.8,29.89,SW,232,6.0,6.0,43,0.00,,---,0.00,VWS V14.00,2013-02-22 21:22:00,
2013-02-22 13:27:00,59.0,36.0,29.89,WSW,257,5.0,6.0,42,0.00,,---,0.00,VWS V14.00,2013-02-22 21:27:00,
2013-02-22 13:32:00,58.6,36.2,29.89,SW,224,4.0,8.0,43,0.00,,---,0.00,VWS V14.00,2013-02-22 21:32:00,
2013-02-22 13:37:00,58.6,36.2,29.89,SSW,207,4.0,5.0,43,0.00,,---,0.00,VWS V14.00,2013-02-22 21:37:00,
2013-02-22 13:42:00,58.6,35.6,29.89,WSW,249,0.0,5.0,42,0.00,,---,0.00,VWS V14.00,2013-02-22 21:42:00,
2013-02-22 13:47:00,58.7,35.1,29.89,WSW,243,4.0,7.0,41,0.00,,---,0.00,VWS V14.00,2013-02-22 21:47:00,
2013-02-22 13:52:00,58.4,35.4,29.89,West,266,0.0,5.0,42,0.00,,---,0.00,VWS V14.00,2013-02-22 21:52:00,
2013-02-22 13:57:00,58.3,36.5,29.89,West,277,5.0,6.0,44,0.00,,---,0.00,VWS V14.00,2013-02-22 21:57:00,
2013-02-22 14:01:00,58.6,36.2,29.89,South,172,1.0,5.0,43,0.00,,---,0.00,VWS V14.00,2013-02-22 22:01:00,
2013-02-22 14:06:00,58.7,36.3,29.88,South,179,3.0,5.0,43,0.00,,---,0.00,VWS V14.00,2013-02-22 22:06:00,
2013-02-22 14:11:00,59.0,36.0,29.88,SSW,195,4.0,5.0,42,0.00,,---,0.00,VWS V14.00,2013-02-22 22:11:00,
2013-02-22 14:16:00,59.3,35.6,29.88,SSW,205,0.0,1.0,41,0.00,,---,0.00,VWS V14.00,2013-02-22 22:16:00,
2013-02-22 14:21:00,59.9,35.5,29.88,SSW,208,0.0,2.0,40,0.00,,---,0.00,VWS V14.00,2013-02-22 22:21:00,
2013-02-22 14:26:00,60.5,36.1,29.88,SSW,207,0.0,1.0,40,0.00,,---,0.00,VWS V14.00,2013-02-22 22:26:00,
2013-02-22 14:31:00,60.9,34.5,29.88,SSW,207,0.0,1.0,37,0.00,,---,0.00,VWS V14.00,2013-02-22 22:31:00,
2013-02-22 14:36:00,61.3,34.8,29.88,South,191,1.0,2.0,37,0.00,,---,0.00,VWS V14.00,2013-02-22 22:36:00,
2013-02-22 14:41:00,61.3,34.1,29.88,SSW,192,2.0,4.0,36,0.00,,---,0.00,VWS V14.00,2013-02-22 22:41:00,
2013-02-22 14:46:00,61.2,34.7,29.88,SSW,192,0.0,4.0,37,0.00,,---,0.00,VWS V14.00,2013-02-22 22:46:00,
2013-02-22 14:51:00,61.2,36.1,29.88,NE,48,1.0,2.0,39,0.00,,---,0.00,VWS V14.00,2013-02-22 22:51:00,
2013-02-22 14:56:00,61.6,36.4,29.88,NNE,23,1.0,2.0,39,0.00,,---,0.00,VWS V14.00,2013-02-22 22:56:00,
2013-02-22 15:01:00,61.8,36.0,29.88,NE,52,1.0,1.0,38,0.00,,---,0.00,VWS V14.00,2013-02-22 23:01:00,
2013-02-22 15:06:00,60.9,35.1,29.88,ENE,77,6.0,6.0,38,0.00,,---,0.00,VWS V14.00,2013-02-22 23:06:00,
2013-02-22 15:11:00,60.9,35.8,29.88,East,86,0.0,1.0,39,0.00,,---,0.00,VWS V14.00,2013-02-22 23:11:00,
2013-02-22 15:16:00,61.5,35.7,29.88,East,89,1.0,3.0,38,0.00,,---,0.00,VWS V14.00,2013-02-22 23:16:00,
2013-02-22 15:21:00,62.0,35.5,29.87,SSE,160,0.0,6.0,37,0.00,,---,0.00,VWS V14.00,2013-02-22 23:21:00,
2013-02-22 15:26:00,61.6,35.8,29.87,ENE,72,0.0,5.0,38,0.00,,---,0.00,VWS V14.00,2013-02-22 23:26:00,
2013-02-22 15:31:00,61.3,36.2,29.87,SSE,147,0.0,2.0,39,0.00,,---,0.00,VWS V14.00,2013-02-22 23:31:00,
2013-02-22 15:36:00,61.6,35.8,29.87,ESE,110,0.0,3.0,38,0.00,,---,0.00,VWS V14.00,2013-02-22 23:36:00,
2013-02-22 15:41:00,61.5,35.7,29.87,ESE,105,0.0,4.0,38,0.00,,---,0.00,VWS V14.00,2013-02-22 23:41:00,
2013-02-22 15:46:00,61.5,35.7,29.87,East,94,1.0,6.0,38,0.00,,---,0.00,VWS V14.00,2013-02-22 23:46:00,
2013-02-22 15:51:00,61.6,35.8,29.87,SSW,205,0.0,6.0,38,0.00,,---,0.00,VWS V14.00,2013-02-22 23:51:00,
2013-02-22 15:56:00,62.0,35.5,29.87,SSW,200,0.0,7.0,37,0.00,,---,0.00,VWS V14.00,2013-02-22 23:56:00,
2013-02-22 16:01:00,62.0,36.1,29.87,SE,128,2.0,5.0,38,0.00,,---,0.00,VWS V14.00,2013-02-23 00:01:00,
2013-02-22 16:06:00,61.6,35.8,29.87,ESE,121,0.0,2.0,38,0.00,,---,0.00,VWS V14.00,2013-02-23 00:06:00,
2013-02-22 16:11:00,61.6,35.8,29.87,ESE,111,0.0,1.0,38,0.00,,---,0.00,VWS V14.00,2013-02-23 00:11:00,
2013-02-22 16:16:00,62.1,35.5,29.87,ESE,120,0.0,1.0,37,0.00,,---,0.00,VWS V14.00,2013-02-23 00:16:00,
2013-02-22 16:21:00,62.1,35.5,29.88,ESE,115,0.0,1.0,37,0.00,,---,0.00,VWS V14.00,2013-02-23 00:21:00,
2013-02-22 16:26:00,62.1,36.2,29.88,SE,126,0.0,2.0,38,0.00,,---,0.00,VWS V14.00,2013-02-23 00:26:00,
2013-02-22 16:31:00,62.1,35.5,29.88,South,180,0.0,7.0,37,0.00,,---,0.00,VWS V14.00,2013-02-23 00:31:00,
2013-02-22 16:36:00,61.6,35.8,29.88,SSE,156,4.0,4.0,38,0.00,,---,0.00,VWS V14.00,2013-02-23 00:36:00,
2013-02-22 16:41:00,61.5,36.3,29.88,SSE,168,0.0,1.0,39,0.00,,---,0.00,VWS V14.00,2013-02-23 00:41:00,
2013-02-22 16:46:00,61.0,35.9,29.88,South,180,0.0,1.0,39,0.00,,---,0.00,VWS V14.00,2013-02-23 00:46:00,
2013-02-22 16:51:00,60.7,35.6,29.88,South,179,0.0,4.0,39,0.00,,---,0.00,VWS V14.00,2013-02-23 00:51:00,
2013-02-22 16:56:00,60.2,35.8,29.88,ENE,78,1.0,4.0,40,0.00,,---,0.00,VWS V14.00,2013-02-23 00:56:00,
2013-02-22 17:01:00,60.1,35.7,29.88,SSE,164,0.0,5.0,40,0.00,,---,0.00,VWS V14.00,2013-02-23 01:01:00,
2013-02-22 17:06:00,59.9,35.5,29.87,SE,139,0.0,1.0,40,0.00,,---,0.00,VWS V14.00,2013-02-23 01:06:00,
2013-02-22 17:11:00,59.5,35.8,29.87,SE,140,0.0,1.0,41,0.00,,---,0.00,VWS V14.00,2013-02-23 01:11:00,
2013-02-22 17:16:00,59.2,35.5,29.87,SSE,164,0.0,1.0,41,0.00,,---,0.00,VWS V14.00,2013-02-23 01:16:00,
2013-02-22 17:21:00,58.7,35.7,29.86,SSE,150,0.0,6.0,42,0.00,,---,0.00,VWS V14.00,2013-02-23 01:21:00,
2013-02-22 17:26:00,58.4,35.4,29.86,South,183,1.0,7.0,42,0.00,,---,0.00,VWS V14.00,2013-02-23 01:26:00,
2013-02-22 17:31:00,58.1,35.7,29.86,SE,137,0.0,3.0,43,0.00,,---,0.00,VWS V14.00,2013-02-23 01:31:00,
2013-02-22 17:36:00,57.6,35.9,29.86,SE,135,0.0,1.0,44,0.00,,---,0.00,VWS V14.00,2013-02-23 01:36:00,
2013-02-22 17:41:00,57.3,35.6,29.86,SE,139,1.0,2.0,44,0.00,,---,0.00,VWS V14.00,2013-02-23 01:41:00,
2013-02-22 17:46:00,57.0,36.4,29.86,SE,146,0.0,1.0,46,0.00,,---,0.00,VWS V14.00,2013-02-23 01:46:00,
2013-02-22 17:51:00,56.6,36.1,29.86,ESE,116,0.0,4.0,46,0.00,,---,0.00,VWS V14.00,2013-02-23 01:51:00,
2013-02-22 17:56:00,56.2,36.3,29.86,ESE,116,0.0,1.0,47,0.00,,---,0.00,VWS V14.00,2013-02-23 01:56:00,
2013-02-22 18:01:00,55.7,36.3,29.86,ESE,116,1.0,1.0,48,0.00,,---,0.00,VWS V14.00,2013-02-23 02:01:00,
2013-02-22 18:06:00,55.4,36.6,29.87,ESE,116,0.0,1.0,49,0.00,,---,0.00,VWS V14.00,2013-02-23 02:06:00,
2013-02-22 18:11:00,55.0,36.7,29.87,ESE,116,0.0,1.0,50,0.00,,---,0.00,VWS V14.00,2013-02-23 02:11:00,
2013-02-22 18:16:00,54.7,36.9,29.87,ESE,116,0.0,1.0,51,0.00,,---,0.00,VWS V14.00,2013-02-23 02:16:00,
2013-02-22 18:21:00,54.2,36.5,29.86,ESE,116,0.0,1.0,51,0.00,,---,0.00,VWS V14.00,2013-02-23 02:21:00,
2013-02-22 18:26:00,53.9,36.7,29.86,ESE,116,0.0,3.0,52,0.00,,---,0.00,VWS V14.00,2013-02-23 02:26:00,
2013-02-22 18:31:00,53.6,36.4,29.86,ESE,111,0.0,3.0,52,0.00,,---,0.00,VWS V14.00,2013-02-23 02:31:00,
2013-02-22 18:36:00,53.5,36.3,29.86,ESE,110,0.0,2.0,52,0.00,,---,0.00,VWS V14.00,2013-02-23 02:36:00,
2013-02-22 18:41:00,53.3,36.1,29.86,ESE,110,0.0,3.0,52,0.00,,---,0.00,VWS V14.00,2013-02-23 02:41:00,
2013-02-22 18:46:00,53.3,36.1,29.86,ESE,108,0.0,3.0,52,0.00,,---,0.00,VWS V14.00,2013-02-23 02:46:00,
2013-02-22 18:51:00,53.2,36.5,29.86,ESE,108,0.0,1.0,53,0.00,,---,0.00,VWS V14.00,2013-02-23 02:51:00,
2013-02-22 18:56:00,52.9,36.7,29.86,ESE,108,0.0,0.0,54,0.00,,---,0.00,VWS V14.00,2013-02-23 02:56:00,
2013-02-22 19:01:00,52.8,37.1,29.86,ESE,108,0.0,1.0,55,0.00,,---,0.00,VWS V14.00,2013-02-23 03:01:00,
2013-02-22 19:06:00,52.5,36.8,29.87,ESE,108,0.0,0.0,55,0.00,,---,0.00,VWS V14.00,2013-02-23 03:06:00,
2013-02-22 19:11:00,52.2,37.0,29.87,ESE,108,0.0,0.0,56,0.00,,---,0.00,VWS V14.00,2013-02-23 03:11:00,
2013-02-22 19:16:00,51.9,36.7,29.87,ESE,108,0.0,1.0,56,0.00,,---,0.00,VWS V14.00,2013-02-23 03:16:00,
2013-02-22 19:21:00,51.7,36.5,29.88,ESE,108,0.0,1.0,56,0.00,,---,0.00,VWS V14.00,2013-02-23 03:21:00,
2013-02-22 19:26:00,51.6,36.4,29.88,ESE,108,0.0,1.0,56,0.00,,---,0.00,VWS V14.00,2013-02-23 03:26:00,
2013-02-22 19:31:00,51.6,36.4,29.88,ESE,106,0.0,1.0,56,0.00,,---,0.00,VWS V14.00,2013-02-23 03:31:00,
2013-02-22 19:36:00,51.6,36.4,29.88,ESE,106,0.0,1.0,56,0.00,,---,0.00,VWS V14.00,2013-02-23 03:36:00,
2013-02-22 19:41:00,51.6,36.4,29.88,ESE,103,0.0,2.0,56,0.00,,---,0.00,VWS V14.00,2013-02-23 03:41:00,
2013-02-22 19:46:00,51.4,36.2,29.88,ESE,103,0.0,0.0,56,0.00,,---,0.00,VWS V14.00,2013-02-23 03:46:00,
2013-02-22 19:51:00,51.3,36.6,29.88,ESE,103,0.0,0.0,57,0.00,,---,0.00,VWS V14.00,2013-02-23 03:51:00,
2013-02-22 19:56:00,51.1,36.4,29.88,ESE,103,0.0,0.0,57,0.00,,---,0.00,VWS V14.00,2013-02-23 03:56:00,
2013-02-22 20:01:00,51.0,36.3,29.88,East,95,0.0,5.0,57,0.00,,---,0.00,VWS V14.00,2013-02-23 04:01:00,
2013-02-22 20:06:00,51.1,36.0,29.87,ESE,105,0.0,2.0,56,0.00,,---,0.00,VWS V14.00,2013-02-23 04:06:00,
2013-02-22 20:11:00,51.1,36.0,29.87,ESE,105,0.0,1.0,56,0.00,,---,0.00,VWS V14.00,2013-02-23 04:11:00,
2013-02-22 20:16:00,51.1,36.0,29.87,ESE,105,0.0,2.0,56,0.00,,---,0.00,VWS V14.00,2013-02-23 04:16:00,
2013-02-22 20:21:00,51.0,36.3,29.86,ESE,108,0.0,0.0,57,0.00,,---,0.00,VWS V14.00,2013-02-23 04:21:00,
2013-02-22 20:26:00,51.0,36.3,29.86,ESE,107,0.0,1.0,57,0.00,,---,0.00,VWS V14.00,2013-02-23 04:26:00,
2013-02-22 20:31:00,50.8,36.1,29.86,ESE,108,0.0,2.0,57,0.00,,---,0.00,VWS V14.00,2013-02-23 04:31:00,
2013-02-22 20:36:00,50.7,36.5,29.85,ESE,108,0.0,1.0,58,0.00,,---,0.00,VWS V14.00,2013-02-23 04:36:00,
2013-02-22 20:41:00,50.7,36.5,29.85,ESE,115,0.0,2.0,58,0.00,,---,0.00,VWS V14.00,2013-02-23 04:41:00,
2013-02-22 20:46:00,50.8,36.1,29.85,SE,127,0.0,1.0,57,0.00,,---,0.00,VWS V14.00,2013-02-23 04:46:00,
2013-02-22 20:51:00,51.0,35.9,29.85,SE,127,0.0,1.0,56,0.00,,---,0.00,VWS V14.00,2013-02-23 04:51:00,
2013-02-22 20:56:00,51.1,36.0,29.85,SE,124,0.0,3.0,56,0.00,,---,0.00,VWS V14.00,2013-02-23 04:56:00,
2013-02-22 21:00:00,51.4,35.8,29.85,ESE,123,0.0,0.0,55,0.00,,---,0.00,VWS V14.00,2013-02-23 05:00:00,
2013-02-22 21:05:00,51.6,36.0,29.86,SE,124,0.0,0.0,55,0.00,,---,0.00,VWS V14.00,2013-02-23 05:05:00,
2013-02-22 21:10:00,51.6,36.4,29.86,SE,124,0.0,1.0,56,0.00,,---,0.00,VWS V14.00,2013-02-23 05:10:00,
2013-02-22 21:15:00,51.3,36.6,29.86,SE,124,0.0,0.0,57,0.00,,---,0.00,VWS V14.00,2013-02-23 05:15:00,
2013-02-22 21:20:00,51.0,36.3,29.88,SE,124,0.0,0.0,57,0.00,,---,0.00,VWS V14.00,2013-02-23 05:20:00,
2013-02-22 21:25:00,50.7,36.9,29.88,SE,124,0.0,0.0,59,0.00,,---,0.00,VWS V14.00,2013-02-23 05:25:00,
2013-02-22 21:30:00,50.5,36.7,29.88,SE,124,0.0,0.0,59,0.00,,---,0.00,VWS V14.00,2013-02-23 05:30:00,
2013-02-22 21:35:00,50.4,36.6,29.89,SE,124,0.0,0.0,59,0.00,,---,0.00,VWS V14.00,2013-02-23 05:35:00,
2013-02-22 21:40:00,50.2,36.9,29.89,SE,124,0.0,0.0,60,0.00,,---,0.00,VWS V14.00,2013-02-23 05:40:00,
2013-02-22 21:45:00,50.2,36.9,29.89,SE,124,0.0,0.0,60,0.00,,---,0.00,VWS V14.00,2013-02-23 05:45:00,
2013-02-22 21:50:00,50.2,36.4,29.89,SE,124,0.0,0.0,59,0.00,,---,0.00,VWS V14.00,2013-02-23 05:50:00,
2013-02-22 21:55:00,50.1,36.8,29.89,SE,124,0.0,0.0,60,0.00,,---,0.00,VWS V14.00,2013-02-23 05:55:00,
2013-02-22 22:00:00,50.1,36.8,29.89,SE,124,0.0,0.0,60,0.00,,---,0.00,VWS V14.00,2013-02-23 06:00:00,
2013-02-22 22:05:00,49.9,36.2,29.89,SE,124,0.0,0.0,59,0.00,,---,0.00,VWS V14.00,2013-02-23 06:05:00,
2013-02-22 22:10:00,49.9,36.2,29.89,SE,124,0.0,0.0,59,0.00,,---,0.00,VWS V14.00,2013-02-23 06:10:00,
2013-02-22 22:15:00,49.9,36.2,29.89,SE,141,0.0,0.0,59,0.00,,---,0.00,VWS V14.00,2013-02-23 06:15:00,
2013-02-22 22:20:00,49.8,36.5,29.88,East,89,0.0,0.0,60,0.00,,---,0.00,VWS V14.00,2013-02-23 06:20:00,
2013-02-22 22:25:00,49.6,36.7,29.88,South,174,0.0,2.0,61,0.00,,---,0.00,VWS V14.00,2013-02-23 06:25:00,
2013-02-22 22:30:00,49.4,36.9,29.88,ESE,122,0.0,2.0,62,0.00,,---,0.00,VWS V14.00,2013-02-23 06:30:00,
2013-02-22 22:35:00,49.1,36.7,29.88,SSE,167,4.0,4.0,62,0.00,,---,0.00,VWS V14.00,2013-02-23 06:35:00,
2013-02-22 22:40:00,49.1,36.7,29.88,SE,125,0.0,2.0,62,0.00,,---,0.00,VWS V14.00,2013-02-23 06:40:00,
2013-02-22 22:44:00,49.1,36.7,29.88,ESE,120,0.0,0.0,62,0.00,,---,0.00,VWS V14.00,2013-02-23 06:44:00,
2013-02-22 22:49:00,49.2,36.8,29.89,SE,131,0.0,1.0,62,0.00,,---,0.00,VWS V14.00,2013-02-23 06:49:00,
2013-02-22 22:54:00,49.4,36.9,29.89,SE,131,0.0,1.0,62,0.00,,---,0.00,VWS V14.00,2013-02-23 06:54:00,
2013-02-22 22:59:00,49.5,37.0,29.89,ESE,115,4.0,4.0,62,0.00,,---,0.00,VWS V14.00,2013-02-23 06:59:00,
2013-02-22 23:04:00,49.6,37.1,29.90,South,178,0.0,2.0,62,0.00,,---,0.00,VWS V14.00,2013-02-23 07:04:00,
2013-02-22 23:09:00,49.8,37.3,29.90,South,178,0.0,0.0,62,0.00,,---,0.00,VWS V14.00,2013-02-23 07:09:00,
2013-02-22 23:14:00,49.9,37.4,29.90,South,177,0.0,0.0,62,0.00,,---,0.00,VWS V14.00,2013-02-23 07:14:00,
2013-02-22 23:19:00,49.9,37.4,29.90,South,177,0.0,0.0,62,0.00,,---,0.00,VWS V14.00,2013-02-23 07:19:00,
2013-02-22 23:24:00,49.9,37.4,29.90,East,80,0.0,0.0,62,0.00,,---,0.00,VWS V14.00,2013-02-23 07:24:00,
2013-02-22 23:29:00,49.9,37.4,29.90,East,100,0.0,0.0,62,0.00,,---,0.00,VWS V14.00,2013-02-23 07:29:00,
2013-02-22 23:34:00,49.8,37.3,29.89,SSE,147,1.0,2.0,62,0.00,,---,0.00,VWS V14.00,2013-02-23 07:34:00,
2013-02-22 23:39:00,49.8,37.7,29.89,ESE,110,0.0,2.0,63,0.00,,---,0.00,VWS V14.00,2013-02-23 07:39:00,
2013-02-22 23:44:00,49.8,37.7,29.89,South,191,1.0,5.0,63,0.00,,---,0.00,VWS V14.00,2013-02-23 07:44:00,
2013-02-22 23:49:00,49.9,37.8,29.89,ESE,117,1.0,3.0,63,0.00,,---,0.00,VWS V14.00,2013-02-23 07:49:00,
2013-02-22 23:54:00,49.9,37.8,29.89,SSE,160,0.0,0.0,63,0.00,,---,0.00,VWS V14.00,2013-02-23 07:54:00,
2013-02-22 23:59:00,50.1,38.0,29.89,SE,129,0.0,3.0,63,0.00,,---,0.00,VWS V14.00,2013-02-23 07:59:00,